User: anonymous   Login
Location: Tyler Bend Campground
(35.9875°N, 92.7606°W)
Time: 04:30:18
(UTC-05:00)
Language:

Iridium 39 - Orbit

View from above orbital plane
View from above orbital plane
View from above satellite
View from above satellite

Ground track
Ground track

The orbit data is extracted from the following two-line orbital elements,

1 25042U 97069D   15209.34070030  .00000237  00000-0  77504-4 0  9997
2 25042 086.4009 310.5286 0002317 091.6885 268.4577 14.34216093927434
Epoch (UTC): 28 July 2015 08:10:36
Eccentricity: 0.0002317
inclination: 86.4009°
perigee height: 776 km
apogee height: 779 km
right ascension of ascending node: 310.5286°
argument of perigee: 91.6885°
revolutions per day: 14.34216093
mean anomaly at epoch: 268.4577°
orbit number at epoch: 92743

The dashed part of the orbit path shows where the satellite is in the earth's shadow,  

DLR